Regional Weather Roundup
Issued by NWS

Home | Current Version | Previous Version | Text Only | Print | Product List | Glossary On
Versions: 1 2 3 4 5 6 7 8 9 10 11 12 13 14 15 16 17 18 19 20 21 22 23 24 25 26 27 28 29 30 31 32 33 34 35 36 37 38 39 40 41 42 43 44 45 46 47 48 49 50
000
ASUS44 KBMX 280110
RWRAL

ALABAMA REGIONAL WEATHER ROUNDUP
NATIONAL WEATHER SERVICE BIRMINGHAM AL
800 PM CDT WED MAY 27 2015

NOTE: "FAIR" INDICATES FEW OR NO CLOUDS BELOW 12,000 FEET
WITH NO SIGNIFICANT WEATHER AND/OR OBSTRUCTIONS TO VISIBILITY.

THE REMARK "TC" DENOTES TEMPERATURE IN DEGREES CELSIUS.

ALZ001>011-014-016>018-020-280200-
NORTH ALABAMA

CITY           SKY/WX    TMP DP  RH WIND       PRES   REMARKS
MUSCLE SHOALS  TSTM      69  66  90 SE8       30.18R
HUNTSVILLE     TSTM      69  67  93 S18       30.23R FOG
DECATUR        HVY RAIN  67  66  97 S7        30.23R FOG
HALEYVILLE     CLOUDY    64  64 100 CALM      30.22F FOG
GADSDEN        CLOUDY   N/A N/A N/A W13       30.22R THUNDER
$$

ALZ012-013-022-023-030>036-040>044-280200-
WEST CENTRAL ALABAMA

CITY           SKY/WX    TMP DP  RH WIND       PRES   REMARKS
TUSCALOOSA     LGT RAIN  70  68  93 E7        30.17R
$$

ALZ015-024>027-033>036-040>044-280200-
CENTRAL ALABAMA

CITY           SKY/WX    TMP DP  RH WIND       PRES   REMARKS
BIRMINGHAM     TSTM      68  67  96 SW6       30.22R FOG
MONTGOMERY     CLOUDY    73  69  87 CALM      30.16R
SHELBY CO ARPT RAIN      67  66  97 CALM      30.20R FOG
MAXWELL AFB    LGT RAIN  72  70  94 N6        30.15R
GREENVILLE     FAIR      73  70  90 CALM      30.15S
$$

ALZ019-021-028-029-037-038-045>048-280200-
EAST CENTRAL ALABAMA

CITY           SKY/WX    TMP DP  RH WIND       PRES   REMARKS
ANNISTON       TSTM      67  65  93 SW12G22   30.22R FOG
ALEXANDER CITY CLOUDY    72  65  80 NW5       30.19R
AUBURN         CLOUDY    75  64  69 S18       30.16R
$$

ALZ051>064-280200-
SOUTHWEST ALABAMA

CITY           SKY/WX    TMP DP  RH WIND       PRES   REMARKS
MOBILE         PTCLDY    75  73  93 CALM      30.13R
BROOKLEY FIELD CLOUDY    77  71  82 E10       30.13R
EVERGREEN      LGT RAIN  70  69  97 E5        30.15F
$$

ALZ049-050-065>069-280200-
SOUTHEAST ALABAMA

CITY           SKY/WX    TMP DP  RH WIND       PRES   REMARKS
DOTHAN         LGT RAIN  70  69  97 E3        30.19R
OZARK          CLOUDY    71  70  95 VRB2      30.14S
TROY           CLOUDY    75  68  78 SW6       30.15F
EUFAULA        FAIR      72  70  93 CALM      30.15F
$$


USA.gov is the U.S. government's official web portal to all federal, state and local government web resources and services.